This is the latest recevied weather packets stored in our database for station/object IZ4MEH-10. If no packets are shown the sender has not sent any weather packets the latest 10 day(s).
| Time | Temp. | Humidity | Pressure | Rain* | Wind** | Luminosity | Snow |
|---|---|---|---|---|---|---|---|
| 1777574247 | 15.56° C | 32% | 1021.9 hPa | - | - | - | - |
| 1777572446 | 16.67° C | 33% | 1021.4 hPa | - | - | - | - |
| 1777568843 | 18.33° C | 28% | 1021 hPa | - | - | - | - |
| 1777567042 | 18.89° C | 28% | 1020.9 hPa | - | - | - | - |
| 1777565241 | 18.89° C | 28% | 1020.8 hPa | - | - | - | - |
| 1777563440 | 19.44° C | 31% | 1020.8 hPa | - | - | - | - |
| 1777561638 | 19.44° C | 32% | 1020.7 hPa | - | - | - | - |
| 1777559837 | 19.44° C | 32% | 1020.8 hPa | - | - | - | - |
| 1777558035 | 20° C | 33% | 1021 hPa | - | - | - | - |
| 1777556234 | 20.56° C | 35% | 1021.2 hPa | - | - | - | - |
| 1777554433 | 20.56° C | 38% | 1021.3 hPa | - | - | - | - |
| 1777552630 | 20.56° C | 38% | 1021.5 hPa | - | - | - | - |
| 1777550830 | 20° C | 38% | 1021.7 hPa | - | - | - | - |
| 1777549028 | 20° C | 40% | 1022 hPa | - | - | - | - |
| 1777547226 | 21.11° C | 38% | 1022 hPa | - | - | - | - |
| 1777545425 | 24.44° C | 30% | 1022.3 hPa | - | - | - | - |
| 1777543624 | 25.56° C | 32% | 1022.2 hPa | - | - | - | - |
| 1777541823 | 26.11° C | 33% | 1022.2 hPa | - | - | - | - |
| 1777540021 | 25° C | 34% | 1022.5 hPa | - | - | - | - |
| 1777538220 | 25° C | 33% | 1022.3 hPa | - | - | - | - |
| 1777536419 | 23.33° C | 37% | 1022.2 hPa | - | - | - | - |
| 1777534618 | 23.89° C | 37% | 1022.1 hPa | - | - | - | - |
| 1777532817 | 18.89° C | 47% | 1022 hPa | - | - | - | - |
| 1777531015 | 21.11° C | 43% | 1021.9 hPa | - | - | - | - |
| 1777529213 | 13.89° C | 62% | 1021.5 hPa | - | - | - | - |
* Rain since midnight (hover to see other rain measurements)
** Current wind speed in m/s (hover to see current wind gust speed)